Location: Bakersfield
(35.3730°N, 119.0180°W)
Time: 17:00:00
(UTC-07:00)

Daily predictions for brighter satellites

Satellite Brightness Start Highest point End
(mag) Time Altitude Azimuth Time Altitude Azimuth Time Altitude Azimuth
METEOR-M 4.1 19:28:31 10° SSE 19:33:49 81° ENE 19:39:11 10° N
Cosmos 1821 Rocket 4.1 19:33:15 10° S 19:39:33 65° E 19:45:51 10° NNE
Resurs 01 Rocket 2.5 19:37:26 10° SE 19:41:15 29° ENE 19:45:04 10° N
Spot 2 Rocket 4.3 19:37:07 10° SE 19:41:35 31° ENE 19:46:03 10° N
Cosmos 2228 4.3 19:37:59 10° SSW 19:42:03 47° W 19:46:10 10° N
Cosmos 1437 Rocket 2.8 19:42:52 10° S 19:46:51 85° E 19:50:55 10° N
Cosmos 1535 Rocket 4.5 19:40:43 10° S 19:46:54 73° E 19:53:13 10° N
Cosmos 2150 Rocket 4.0 19:41:54 10° SSW 19:47:02 86° WNW 19:52:13 10° NNE
Delta 2 Rocket 3.5 19:44:20 10° W 19:49:15 88° S 19:53:08 12° E
USA 215 3.8 19:44:44 10° ENE 19:50:42 37° SE 19:56:37 10° SSW
SJ-6B 2.6 19:47:43 10° SSE 19:51:27 83° ENE 19:55:12 10° N
ALOS 2.3 19:48:02 10° SSE 19:52:39 65° ENE 19:57:17 10° N
Meteor 1-22 Rocket 4.3 19:47:47 10° S 19:53:28 67° E 19:59:24 10° NNE
Cosmos 990 Rocket 4.0 19:48:57 10° SSW 19:54:12 82° ESE 19:59:28 10° NNE
CZ-3 Stage 3 4.5 18:40:32 10° WSW 19:55:46 72° S 20:03:53 14° E
Cosmos 1898 Rocket 4.5 19:51:39 10° SSW 19:56:49 52° WNW 20:01:59 10° N
Cosmos 1605 Rocket 4.2 19:51:41 10° SSE 19:57:35 47° E 20:03:36 10° NNE
Helios 1B rocket 3.5 19:56:22 10° NE 19:59:44 24° E 20:03:04 10° SSE
BREEZE-M DEB (TANK) 3.1 19:57:16 10° SSW 19:59:46 32° SE 20:05:31 10° ENE
Yuri Rocket 4.0 19:56:13 10° WSW 20:00:03 31° S 20:03:03 14° ESE
Helios 1A 4.2 20:00:31 14° ESE 20:02:54 23° ENE 20:06:11 10° NNE
Cosmos 1844 Rocket 3.9 19:58:22 10° SW 20:03:45 45° WNW 20:09:09 10° N
In-Cosmos 22 4.4 19:59:49 10° N 20:04:50 42° ENE 20:09:48 10° SSE
Cosmos 1378 3.1 20:01:13 10° N 20:05:00 88° W 20:08:44 10° S
Cosmos 1125 Rocket 4.1 20:00:53 10° SSE 20:05:25 32° E 20:09:59 10° NE
Lacrosse 4 Rocket 3.4 20:02:08 10° WSW 20:05:42 30° WNW 20:09:19 10° N
HJ-1C 3.4 20:06:21 10° S 20:09:43 83° W 20:13:08 10° NNW
Cosmos 2344 3.8 20:02:19 10° SW 20:10:00 77° WNW 20:18:22 10° NNE
Cosmos 1758 3.8 20:09:31 10° SSE 20:13:09 36° E 20:16:49 10° NNE
Cosmos 2123 Rocket 4.0 20:07:52 10° N 20:14:11 68° E 20:20:24 10° SSE
Cosmos 2278 Rocket 2.2 20:10:10 10° SSW 20:15:50 89° WNW 20:21:33 10° NNE
Geosat 3.9 20:11:52 10° NNE 20:16:55 77° ESE 20:21:55 10° SSW
Cosmos 1833 Rocket 4.1 20:13:08 10° N 20:17:09 20° ENE 20:18:39 18° ENE
Lacrosse 5 2.5 20:13:02 10° SW 20:18:01 58° NW 20:23:01 10° NNE
H-2A R/B 2.7 20:15:43 10° SSE 20:19:34 86° ENE 20:23:31 10° N
FENGYUN 3A 4.0 20:15:09 10° S 20:20:32 70° WSW 20:25:56 10° NNW
SL-27 R/B 2.4 20:18:00 10° NNW 20:21:36 80° ENE 20:24:31 15° SSE
FengYun 1-2 T 4.4 20:16:26 10° S 20:21:58 75° WSW 20:27:35 10° NNW
Cosmos 1953 2.6 20:18:44 10° SSE 20:22:36 44° E 20:26:28 10° NNE
Meteor 1-4 Rocket 2.8 20:19:31 10° SSE 20:22:48 41° E 20:26:05 10° NNE
Cosmos 1939 Rocket 4.4 20:24:03 20° ENE 20:24:03 20° ENE 20:26:48 10° NNE
Resurs 1-3 3.5 20:21:50 10° SSE 20:26:12 83° ENE 20:30:35 10° N
Cosmos 1544 2.9 20:23:24 10° S 20:26:59 68° E 20:30:38 10° NNE
Meteor 1-29 3.4 20:24:03 10° NNE 20:27:18 37° E 20:27:30 36° ESE
Cosmos 2297 3.8 20:23:58 10° S 20:29:27 52° ESE 20:35:00 10° NNE
SeaSat 1 3.3 20:28:01 10° S 20:32:47 50° WSW 20:37:35 10° NW
Cosmos 1818 4.2 20:29:33 10° NNW 20:34:34 36° NE 20:36:09 30° E
ATLAS 5 CENTAUR R/B 2.3 20:31:22 10° S 20:35:09 33° ESE 20:35:09 33° ESE
Meteor 1-24 Rocket 4.4 20:33:52 10° NNW 20:39:14 55° W 20:44:47 10° S
Tiangong 1 1.2 20:40:25 10° WNW 20:43:02 60° NNW 20:43:02 60° NNW
Cosmos 1269 Rocket 4.4 20:41:56 10° N 20:46:57 42° ENE 20:47:43 40° E
Cosmos 1408 Rocket 3.9 20:43:21 10° N 20:47:32 44° ENE 20:47:32 44° ENE
Cosmos 2082 Rocket 2.7 20:43:47 10° N 20:49:07 40° ENE 20:49:57 37° E
Cosmos 2098 Rocket 4.3 20:44:08 10° S 20:51:03 87° E 20:58:42 10° N
USA 186 3.8 20:53:13 15° NNW 20:53:13 15° NNW 20:53:45 10° NNW
Cosmos 1447 Rocket 4.3 20:47:03 10° N 20:53:12 77° E 20:57:50 18° SSE
Cosmos 1459 Rocket 4.0 20:49:24 13° SSE 20:54:53 53° E 21:00:53 10° NNE
Okean 3 Rocket 4.0 20:50:59 10° NNW 20:55:20 60° W 20:59:00 14° S
Cosmos 468 4.4 20:50:05 10° NNW 20:55:20 77° ENE 20:57:06 42° SSE
RESURS DK-1 3.3 20:51:43 10° NW 20:55:41 46° WSW 20:57:48 24° S
Cosmos 2173 Rocket 4.0 20:54:35 23° SSE 20:58:17 55° E 21:04:21 10° NNE
GPS 2-05 Rocket1 4.0 20:57:18 10° WSW 20:59:44 37° SW 20:59:44 37° SW
SJ-11-01 4.2 21:03:05 65° E 21:03:19 67° ENE 21:08:01 10° N
Cosmos 1867 3.7 21:01:23 10° SSW 21:06:49 76° WNW 21:12:18 10° NNE
Cosmos 372 Rocket 4.0 21:06:49 10° SSW 21:11:54 77° WNW 21:17:04 10° NNE
Cosmos 1674 3.9 21:10:33 10° N 21:12:51 36° N 21:12:51 36° N
GP-B 3.6 21:13:13 34° SSW 21:14:57 59° W 21:19:21 10° N
CZ-3B DEB 4.5 21:08:41 10° W 21:16:53 27° NW 21:21:23 10° NNE
Resurs 01 Rocket 4.1 21:14:23 10° SW 21:17:42 21° W 21:21:01 10° NW
Cosmos 158 Rocket 4.0 21:22:01 10° NNW 21:26:35 70° N 21:26:35 70° N
Cosmos 2016 Rocket 3.9 21:30:07 69° ENE 21:30:07 69° ENE 21:35:47 10° N
Cosmos 1766 Rocket 4.3 21:26:23 10° NNW 21:30:29 53° WNW 21:30:29 53° WNW
H-2A R/B 4.4 21:35:57 13° NNE 21:35:57 13° NNE 21:36:40 10° NNE
USA 215 3.8 21:27:26 10° NE 21:33:46 54° NW 21:40:04 10° WSW
Meteor 2-17 Rocket 4.5 21:38:47 69° NNE 21:38:47 69° NNE 21:44:11 10° N
Envisat 3.7 21:37:40 46° SW 21:38:18 49° W 21:43:14 10° NNW
Cosmos 1833 Rocket 3.5 21:55:55 10° NNW 22:00:23 47° WNW 22:00:23 47° WNW
ERS-1 Rocket 4.4 22:03:28 35° NW 22:03:28 35° NW 22:06:35 10° NNW
USA 267 4.2 22:04:45 37° NNE 22:04:45 37° NNE 22:09:51 10° NNW
H-2A R/B (2) 4.0 22:00:27 10° WSW 22:02:09 23° SW 22:02:09 23° SW
ATLAS 5 CENTAUR R/B 4.4 22:16:14 10° WSW 22:17:00 14° W 22:17:00 14° W
Cosmos 2082 Rocket 4.2 22:28:26 10° NW 22:31:51 23° W 22:31:51 23° W
